Other Public Products
Issued by NWS Grand Forks, ND

Home | Current Version | Previous Version | Text Only | Print | Product List | Glossary Off
Versions: 1 2 3 4 5 6 7 8 9 10 11 12 13 14 15 16 17 18 19 20 21 22 23 24 25 26 27 28 29 30 31 32 33 34 35 36 37 38 39 40 41 42 43 44 45 46 47 48 49 50

000
FPUS83 KFGF 201031
OPUFGF
PRAIRIE TO PINES WEATHER ROUNDUP
NATIONAL WEATHER SERVICE EASTERN NORTH DAKOTA/GRAND FORKS ND
500 AM CDT SAT SEP 20 2014

 **SATELLITE DATA USED TO AUGMENT SKY COVER AT AUTOMATED STATIONS**
 *****  WEATHER ACROSS EASTERN NORTH DAKOTA  *****

CITY           SKY/WX    TMP DP  RH WIND       PRES   REMARKS
GRAND FORKS    CLEAR     51  49  92 CALM      29.76R
GRAND FORKS AF CLEAR     51  51  99 NW5       29.77R
GRAND CITY NWS   N/A     48 N/A N/A NW2         N/A
BUXTON           N/A     51  51  99 W3          N/A
DEVILS LAKE    CLEAR     52  46  82 W6        29.77S
FARGO          CLEAR     53  51  93 NW7       29.78R
WAHPETON ARPT  SUNNY     52  50  93 W6        29.81R
$$

 *****  WEATHER ACROSS CENTRAL AND WESTERN NORTH DAKOTA  *****

CITY           SKY/WX    TMP DP  RH WIND       PRES   REMARKS
JAMESTOWN      CLEAR     55  53  93 CALM      29.82R
BISMARCK       MOCLDY    54  51  90 SW3       29.87R
MINOT          CLEAR     54  49  83 SW14      29.80S
MINOT AFB      CLEAR     52  52  97 SW9       29.79S
GARRISON         N/A     52  50  93 W5        29.84S
WILLISTON      CLOUDY    53  50  89 SW7       29.85S
DICKINSON      CLEAR     50  45  83 W7        29.89S
HETTINGER      PTCLDY    52  46  80 NW8       29.94S
$$

 *****  OTHER OBSERVATIONS NORTHEAST NORTH DAKOTA  *****

CITY           SKY/WX    TMP DP  RH WIND       PRES   REMARKS
WALHALLA       CLOUDY    54  54 100 NW3       29.76S
LANGDON        FOG       45  43  93 SW3       29.76F VSB<1/4
CAVALIER       CLOUDY    54  54 100 W10       29.76S
GRAFTON        FAIR      50  50 100 NW7       29.76S
CANDO          FAIR      46  46 100 W5        29.78F FOG
FORT TOTTEN      N/A     54  54  99 W2        29.95S
ROLLA          PTSUNNY   48  48 100 SW6       29.78F
RUGBY          FAIR      48  48 100 SW6       29.79F
 ***** THE ABOVE OBSERVATIONS ARE NON NWS ARE NOT QUALITY
        CONTROLLED AND MAY MIS-REPORT RAIN FOR SNOW...
$$

 *****  OTHER OBSERVATIONS SOUTHEAST NORTH DAKOTA *****

CITY           SKY/WX    TMP DP  RH WIND       PRES   REMARKS
COOPERSTOWN    NOT AVBL
VALLEY CITY    FAIR      54  54 100 W9        29.80F FOG
OAKES            N/A     54  54 100 SW3       29.83R
GWINNER        SUNNY     55  55 100 SW7       29.83R
SHEYENNE NWR     N/A     56  55  96 N6        29.95S
BUFFALO          N/A     51  49  92 W5          N/A
WYNDMERE         N/A     54  54 100 SW1         N/A
 ***** THE ABOVE OBSERVATIONS ARE NON NWS ARE NOT QUALITY
       CONTROLLED AND MAY MIS-REPORT RAIN FOR SNOW...
$$

  *****  WEATHER ACROSS NORTHERN MINNESOTA  *****

CITY           SKY/WX    TMP DP  RH WIND       PRES   REMARKS
FLAG ISLAND    CLOUDY    54  50  87 NW13      29.68S
WARROAD        CLEAR     50  46  87 W3        29.73R
ROSEAU         PTCLDY    52  46  82 W6        29.73R
HALLOCK        CLOUDY    54  52  94 NW6       29.75R
THF RVR FALLS  CLOUDY    55  52  88 NW15      29.75R
HALSTAD          N/A     51  50  96 NW2         N/A
FOSSTON        PTCLDY    54  52  94 NW6       29.75S
BAUDETTE       CLOUDY    53  49  86 NW13      29.69R
WASKISH        CLOUDY    55  54  94 W6        29.71S
CROOKSTON      CLOUDY    55  54  94 NW9       29.77R
$$
  *****  WEATHER ACROSS CENTRAL AND WEST MINNESOTA  *****

CITY           SKY/WX    TMP DP  RH WIND       PRES   REMARKS
BEMIDJI        CLOUDY    54  51  90 NW12      29.75R
PARK RAPIDS    CLEAR     54  53  97 NW8       29.73R
WADENA         CLEAR     57  55  94 NW5       29.74S
DETROIT LAKES  CLOUDY    55  54  94 NW8       29.80R
MOORHEAD       CLEAR     55  55 100 W3        29.80R
FERGUS FALLS   CLOUDY    57  55  94 N9        29.80R
ELBOW LAKE     CLOUDY    58  56  95 NW8       29.79R
MORRIS MN      CLEAR     55  55 100 NW9       29.79R
STAPLES        CLEAR     57  55  94 NW5       29.73S
WHEATON        CLEAR     55  54  94 NW6       29.83R
$$
  *****  WEATHER ELSEWHERE ACROSS MINNESOTA  *****

CITY           SKY/WX    TMP DP  RH WIND       PRES   REMARKS
DULUTH         CLOUDY    63  61  93 W12       29.60R FOG
INTRNTL FALLS  CLOUDY    57  56  96 W12G20    29.64R
ELY            MOCLDY    61  59  94 W7        29.58R
CLOQUET        CLOUDY    63  61  94 W12       29.63R
BRAINERD       MOCLDY    60  57  89 NW9       29.72R
HIBBING        CLOUDY    62  57  83 NW13G23   29.64R
ALEXANDRIA     CLOUDY    59  57  93 NW13      29.77R
SAINT CLOUD    CLEAR     64  58  80 W9        29.70R
MINNEAPOLIS    CLOUDY    68  64  87 SW8       29.71R
$$

  *****  WEATHER ACROSS SOUTH DAKOTA  *****

CITY           SKY/WX    TMP DP  RH WIND       PRES   REMARKS
SIOUX FALLS    MOCLDY    64  55  72 NW9       29.83R
BROOKINGS      NOT AVBL
WATERTOWN      PTCLDY    58  54  86 NW6       29.84R
HURON          PTCLDY    55  51  86 NW6       29.86R
SISSETON         N/A     58  57  97 NW8       29.80R
ABERDEEN       CLEAR     55  53  93 NW6       29.85R
MITCHELL       LGT RAIN  63  58  83 W5        29.86S
PIERRE         PTCLDY    59  53  80 W9        29.88S
MOBRIDGE       CLEAR     54  52  93 N5        29.86S
RAPID CITY     CLEAR     56  46  69 NW8       30.01R
$$

  *****  SOME WEATHER IN NEARBY STATES *****

CITY           SKY/WX    TMP DP  RH WIND       PRES   REMARKS
GLASGOW MT     CLEAR     54  46  74 W8        29.90R
GREAT FALLS MT CLEAR     49  41  74 SW12      30.11R
CHEYENNE WY    CLEAR     58  43  57 N14       30.19R
SCOTTSBLUFF NE CLEAR     57  48  72 W6        30.08R
OMAHA NE       TSTM      72  68  87 S6        29.86R
DES MOINES IA  LGT RAIN  71  64  78 CALM      29.91R
DAVENPORT IA   CLOUDY    64  58  80 W7        29.92R
CHICAGO IL     CLOUDY    64  52  64 SW12      29.92R
EAU CLAIRE WI  CLOUDY    67  63  87 SW9       29.70R
LA CROSSE WI   CLOUDY    66  62  87 S8        29.74S
$$

  *****  SOME NATIONAL WEATHER *****

CITY           SKY/WX    TMP DP  RH WIND       PRES   REMARKS
LA GUARDIA NY  PTCLDY    58  51  78 E8        30.31F
RALEIGH NC     CLEAR     58  56  93 CALM      30.21R
ATLANTA GA     MOCLDY    66  63  88 E12       30.13S
NEW ORLEANS LA CLEAR     79  71  76 E6        29.93R
OKLAHOMA CITY  MOCLDY    70  68  93 S6        29.99S FOG
ALBUQUERQUE NM CLEAR     66  58  75 NW5       30.12S
SALT LAKE CITY CLEAR     60  50  69 SW5       30.11S
LOS ANGELES CA PTCLDY    66  63  89 CALM      29.90S
BOISE ID       CLEAR     59  45  59 CALM      30.07R
SEATTLE WA     CLEAR     62  55  77 NE9       30.11S
$$

*** WEATHER ACROSS MANITOBA...SASKATCHEWAN AND ONTARIO ***
                ***ONTARIO***

CITY           SKY/WX    TMP DP  RH WIND       PRES   REMARKS
GERALDTON      HVY RAIN N/A N/A N/A W8          N/A  VSB 1/4
THUNDER BAY    CLOUDY    57  57 100 SW3       29.52F FOG
SIOUX LOOKOUT  LGT RAIN  55  55 100 N7        29.58R FOG
TORONTO        MOCLDY    52  48  87 CALM      30.02S
BIG TROUT LK   CLOUDY    41  37  87 N5        29.63R
PICKLE LAKE    NOT AVBL
DRYDEN         CLOUDY    55  54  94 NW6       29.62R
KENORA         FOG       52  52 100 NW9       29.67R VSB 1/2
$$
                *** MANITOBA***

CITY           SKY/WX    TMP DP  RH WIND       PRES   REMARKS
BRANDON        FOG       52  52 100 S7        29.74F VSB 1/4
DAUPHIN        FOG       48  48 100 S2        29.68F VSB 3/8
ISLAND LAKE    CLOUDY    45  37  76 N6        29.68R
PILOT MOUND    NOT AVBL
THE PAS        PTCLDY    50  48  93 S6        29.57S
THOMPSON       MOCLDY    30  30 100 CALM      29.65S
WINNIPEG       FOG       45  43  93 W6        29.75R VSB 1/4
LYNN LAKE      LGT RAIN  43  37  81 E9        29.58S
CHURCHILL      CLOUDY    37  36  93 N15       29.67R FOG
GILLAM         CLEAR     30  28  93 CALM      29.68R
$$
                ***SASKATCHEWAN***

CITY           SKY/WX    TMP DP  RH WIND       PRES   REMARKS
ESTEVAN        CLEAR     52  50  93 SW6       29.81S
KINDERSLEY     PTCLDY    52  46  82 NW7       29.94S
LLOYDMINSTER   CLEAR     48  36  61 W17       29.88R
PRINCE ALBERT  MOCLDY    55  43  62 W10       29.73R
REGINA         LGT RAIN  54  52  94 W10       29.86S



USA.gov is the U.S. government's official web portal to all federal, state and local government web resources and services.